Regional Weather Roundup
Issued by NWS

Home | Current Version | Previous Version | Graphics & Text | Print | Product List | Glossary On
Versions: 1 2 3 4 5 6 7 8 9 10 11 12 13 14 15 16 17 18 19 20 21 22 23 24 25 26 27 28 29 30 31 32 33 34 35 36 37 38 39 40 41 42 43 44 45 46 47 48 49 50
000
ASUS43 KLSX 131907
RWRMO

WEATHER SUMMARY FOR MISSOURI
NATIONAL WEATHER SERVICE SPRINGFIELD MO
100 PM CST SAT FEB 13 2016

NOTE: "FAIR" INDICATES FEW OR NO CLOUDS BELOW 12,000 FEET WITH NO
       SIGNIFICANT WEATHER AND/OR OBSTRUCTIONS TO VISIBILITY.
       CURRENT SKY AND/OR WEATHER CONDITIONS ARE NOT AVAILABLE FOR
       CHILLICOTHE AND FARMINGTON.

MOZ001>031-035>038-043-044-053-054-132000-
...NORTHERN AND WESTERN MISSOURI...

CITY           SKY/WX    TMP DP  RH WIND       PRES   REMARKS
KANSAS CTY INT CLOUDY    19   3  49 E14       30.51F WCI   6
KANSAS C DTWN  CLOUDY    21   2  43 E12       30.53F WCI   9
LEE`S SUMMIT   CLOUDY    19   2  47 E13       30.52F WCI   6
ST JOSEPH      CLOUDY    19   1  45 E8        30.53F WCI   9
CHILLICOTHE      N/A     17   1  49 E8        30.58F WCI   7
KIRKSVILLE     CLOUDY    15  -2  46 E5        30.57F WCI   8

$$
MOZ066>068-077>081-088>096-101>105-132000-
...SOUTHWEST MISSOURI...

CITY           SKY/WX    TMP DP  RH WIND       PRES   REMARKS
SPRINGFIELD    CLOUDY    33   0  24 SE8       30.44F WCI  26
JOPLIN         CLOUDY    37   3  24 SE7G16    30.43F

$$
MOZ032>034-039>042-045>050-055>058-069>072-132000-
...CENTRAL MISSOURI...

CITY           SKY/WX    TMP DP  RH WIND       PRES   REMARKS
COLUMBIA       CLOUDY    18  -1  43 E6        30.56F WCI  10
JEFFERSON CITY CLOUDY    19   0  43 VRB5      30.60F WCI  12
ROLLA          CLOUDY    19   1  45 E6        30.52F WCI  11
SEDALIA        CLOUDY    20   1  43 E9        30.55F WCI   9
WHITEMAN AFB   CLOUDY    20   3  48 E8        30.53F WCI  10
WARRENSBURG    CLOUDY    21   3  45 E10       30.54F WCI  10
OSAGE BEACH    CLOUDY    21   0  39 NE6       30.55F WCI  14

$$
MOZ051-052-059>065-132000-
...EAST CENTRAL MISSOURI...

CITY           SKY/WX    TMP DP  RH WIND       PRES   REMARKS
ST LOUIS INTL  PTSUNNY   22  -1  36 CALM      30.61F
SPIRIT OF STL  CLOUDY    21   0  39 N7        30.60F WCI  12
ST CHARLES     MOSUNNY   20  -1  40 VRB3      30.62F

$$
MOZ072>076-082>087-097>100-106>115-132000-
...SOUTH CENTRAL AND SOUTHEAST MISSOURI...

CITY           SKY/WX    TMP DP  RH WIND       PRES   REMARKS
CAPE GIRARDEAU MOSUNNY   24   3  40 NE7       30.59F WCI  16
FARMINGTON     CLOUDY    20   1  43 E3        30.56F
POPLAR BLUFF   MOSUNNY   27   4  37 NE8       30.59F WCI  19
WEST PLAINS    SUNNY     31  -7  19 VRB6      30.49F WCI  25

$$


USA.gov is the U.S. government's official web portal to all federal, state and local government web resources and services.